Temp
16 16 16 16 16 17 17 17 17 17 17 17 17 17 17 17 17 17 17 17 17 17 17 16 15 15 15 15 16 16 17 16 15 15 15 16 16 17 16 16 17 14 15
16 16 17 16 16 16 17 17 17 17 17 17 17 17 17 17 17 17 17 17 17 17 17 16 16 15 15 15 16 16 16 16 16 15 15 15 16 16 16 16 16 16 16
16 16 16 16 16 16 16 16 16 16 17 17 17 17 17 17 17 17 17 17 16 16 16 15 15 15 15 15 15 16 16 16 16 16 15 14 15 15 15 16 16 16 16
16 16 16 16 16 16 16 16 16 16 16 16 16 16 16 17 16 16 17 16 16 15 15 16 16 16 15 15 15 16 16 16 15 15 14 14 14 15 15 16 16 16 16
15 16 16 16 16 16 16 16 16 16 16 16 16 16 16 16 16 16 16 16 15 15 15 15 15 16 16 16 15 15 15 15 15 15 14 14 14 14 16 16 16 15 15
15 15 16 16 16 16 16 16 16 16 16 16 16 16 16 16 16 16 16 16 15 15 15 15 15 16 16 16 16 15 15 15 15 13 13 14 14 14 15 15 15 15 15
15 15 15 16 16 15 15 15 16 15 15 16 15 15 15 15 16 16 16 15 15 15 15 15 15 16 16 16 16 15 15 15 14 13 13 13 13 15 15 15 15 15 15
15 15 15 15 15 16 16 16 16 15 16 15 15 15 15 15 15 15 16 16 16 15 15 15 15 15 16 16 16 16 15 15 14 13 13 13 14 15 15 15 15 15 15
15 15 15 15 15 15 15 16 16 15 15 16 16 16 15 15 15 15 15 15 15 16 16 15 15 15 15 16 16 15 15 15 15 13 13 13 14 15 15 15 15 15 15
15 16 16 16 16 15 15 15 15 16 16 16 15 15 16 16 16 15 15 15 15 15 15 15 15 15 15 15 15 15 15 15 15 13 14 14 15 15 15 15 15 15 15
15 15 16 16 16 16 16 16 15 15 15 15 15 14 15 15 14 14 15 15 15 15 15 15 15 15 14 14 15 15 15 15 13 13 13 14 15 15 15 15 15 15 15
15 15 15 15 16 15 15 16 16 16 15 15 15 15 15 15 15 15 15 15 15 15 15 15 15 15 14 14 13 15 15 14 13 13 13 16 15 15 15 15 15 15 14
14 14 14 15 15 15 15 15 15 15 16 16 15 15 15 15 15 15 15 15 15 15 15 14 14 14 13 14 14 13 13 13 14 13 14 16 15 15 15 15 15 15 14
14 14 14 14 14 14 14 15 15 15 15 15 15 16 15 15 15 15 15 16 16 15 14 14 14 14 14 14 13 14 14 13 13 13 13 16 16 15 15 15 15 14 14
13 13 13 14 14 14 14 15 15 15 15 15 15 15 15 15 15 15 15 15 15 15 15 14 14 14 13 13 13 13 13 14 13 13 13 14 16 16 15 15 15 15 14
13 13 13 13 14 14 14 14 14 14 14 14 14 14 14 14 14 14 14 14 13 14 15 14 13 14 13 13 14 14 14 13 14 13 13 13 15 16 15 15 15 15 14
12 12 12 13 13 13 13 14 13 13 13 13 13 13 13 13 13 13 13 12 12 12 12 13 14 13 13 13 13 13 13 14 13 13 13 13 12 14 15 15 15 15 15
12 12 12 12 12 12 12 12 12 12 11 11 11 11 12 12 12 12 12 12 12 11 11 11 11 12 13 13 13 13 13 13 13 14 13 13 13 12 14 15 15 15 15
11 11 11 11 11 11 11 11 11 10 10 10 9 9 10 10 10 10 11 11 11 10 10 10 11 11 11 12 12 12 13 13 13 14 14 13 13 13 13 13 15 15 15
11 11 11 10 10 10 10 10 9 9 8 8 8 8 8 8 8 9 9 9 9 9 9 9 10 10 11 11 11 11 11 12 12 12 13 13 13 13 12 14 14 14 15
10 10 10 10 9 9 9 9 9 8 8 7 7 8 8 8 8 8 8 8 9 9 8 9 9 9 10 10 10 11 11 11 11 12 13 13 14 14 13 14 15 14 14
10 10 10 10 9 9 9 9 8 8 8 7 7 7 7 8 8 7 6 7 8 8 8 8 8 9 9 10 10 10 11 12 13 12 12 13 13 13 13 13 13 14 14
10 10 10 10 9 8 8 8 8 8 7 8 8 8 7 7 7 7 7 7 7 7 7 8 8 8 9 9 9 10 11 12 13 13 12 12 12 12 12 12 12 13 13
10 10 10 10 9 8 8 7 7 6 5 6 6 7 7 7 7 7 7 7 7 7 7 7 8 8 8 8 9 9 9 9 10 10 11 11 12 11 11 12 12 13 12
10 9 9 9 9 8 8 7 6 6 6 6 5 6 6 6 7 7 7 7 7 7 7 7 7 7 8 8 8 8 9 9 9 9 10 11 11 11 11 12 12 12 12
9 9 9 9 8 8 7 7 6 6 5 5 5 6 5 5 6 6 6 7 7 7 7 7 7 7 7 7 7 7 7 8 9 9 10 10 10 11 11 11 10 11 11
Height
1549 1549 1549 1549 1549 1549 1550 1550 1550 1550 1550 1550 1550 1549 1549 1549 1548 1547 1547 1546 1545 1545 1545 1545 1545 1545 1545 1545 1545 1545 1544 1544 1544 1544 1544 1544 1544 1543 1543 1543 1542 1542 1540
1549 1550 1549 1549 1549 1550 1550 1550 1551 1551 1551 1550 1550 1550 1549 1549 1548 1547 1547 1546 1546 1545 1545 1546 1546 1546 1546 1546 1546 1545 1545 1545 1545 1545 1545 1545 1544 1544 1544 1544 1543 1542 1541
1550 1550 1550 1550 1550 1549 1550 1550 1551 1552 1551 1551 1550 1550 1550 1549 1548 1547 1547 1547 1546 1546 1546 1546 1546 1546 1546 1546 1546 1545 1545 1545 1545 1545 1546 1547 1545 1545 1544 1544 1543 1543 1542
1550 1550 1549 1549 1550 1550 1550 1550 1550 1551 1551 1551 1551 1550 1550 1549 1549 1548 1547 1547 1547 1547 1547 1547 1547 1546 1546 1546 1546 1546 1545 1545 1545 1545 1546 1547 1547 1545 1545 1544 1543 1543 1542
1550 1550 1549 1549 1549 1550 1550 1550 1550 1550 1551 1550 1551 1550 1550 1549 1549 1548 1547 1547 1547 1547 1546 1546 1546 1546 1545 1545 1545 1545 1545 1545 1545 1546 1547 1547 1547 1545 1544 1544 1543 1543 1542
1550 1550 1550 1549 1549 1549 1549 1549 1550 1549 1549 1550 1549 1549 1549 1549 1548 1548 1547 1547 1546 1546 1546 1546 1545 1545 1544 1544 1544 1544 1544 1544 1545 1546 1547 1546 1546 1544 1544 1543 1543 1542 1542
1550 1550 1550 1549 1549 1549 1549 1548 1548 1548 1548 1548 1548 1548 1548 1547 1547 1547 1546 1546 1545 1545 1545 1544 1544 1544 1543 1543 1543 1543 1544 1544 1544 1546 1546 1545 1544 1543 1543 1543 1542 1542 1542
1549 1550 1550 1549 1549 1549 1549 1548 1547 1547 1546 1546 1546 1546 1546 1546 1545 1545 1545 1544 1544 1543 1543 1543 1542 1542 1542 1542 1541 1542 1542 1543 1543 1545 1544 1544 1542 1542 1542 1541 1541 1541 1541
1549 1550 1549 1549 1549 1549 1548 1547 1546 1545 1545 1544 1544 1544 1543 1543 1543 1543 1543 1542 1542 1541 1541 1541 1541 1540 1540 1540 1540 1540 1540 1541 1541 1543 1542 1542 1540 1540 1540 1540 1540 1540 1540
1549 1549 1549 1548 1548 1547 1546 1546 1545 1544 1543 1542 1542 1541 1541 1540 1540 1540 1540 1539 1539 1539 1539 1539 1538 1538 1538 1538 1538 1538 1538 1538 1539 1540 1539 1539 1538 1538 1538 1538 1538 1539 1539
1549 1548 1548 1547 1546 1545 1544 1543 1542 1541 1540 1540 1539 1538 1537 1537 1538 1537 1536 1536 1536 1536 1536 1535 1535 1536 1535 1535 1535 1535 1535 1535 1536 1536 1536 1535 1535 1535 1535 1535 1535 1536 1536
1548 1547 1546 1545 1543 1542 1541 1540 1539 1538 1537 1536 1535 1534 1534 1533 1533 1533 1532 1532 1532 1532 1532 1532 1531 1531 1532 1532 1532 1531 1530 1531 1533 1533 1532 1531 1532 1532 1532 1532 1532 1533 1533
1545 1545 1544 1542 1541 1539 1538 1537 1535 1534 1533 1532 1531 1530 1530 1529 1528 1528 1528 1527 1527 1527 1527 1527 1527 1526 1527 1528 1528 1529 1528 1529 1530 1528 1527 1526 1528 1528 1528 1528 1529 1529 1530
1543 1542 1541 1539 1538 1536 1534 1533 1531 1530 1528 1527 1526 1525 1524 1524 1523 1523 1522 1522 1522 1522 1522 1523 1523 1524 1524 1525 1524 1524 1524 1524 1524 1524 1523 1521 1523 1523 1524 1524 1525 1525 1525
1541 1540 1538 1536 1534 1532 1530 1528 1526 1524 1522 1520 1519 1519 1518 1517 1517 1516 1516 1516 1516 1517 1517 1517 1517 1517 1517 1519 1519 1519 1519 1519 1519 1519 1518 1516 1517 1518 1518 1519 1519 1520 1521
1539 1537 1535 1532 1530 1527 1525 1522 1520 1518 1516 1514 1512 1511 1510 1509 1509 1509 1509 1510 1510 1510 1510 1510 1510 1511 1511 1511 1511 1512 1512 1513 1513 1513 1513 1512 1510 1511 1512 1513 1514 1514 1515
1536 1535 1532 1529 1527 1523 1520 1517 1514 1512 1509 1507 1506 1504 1504 1503 1502 1502 1502 1502 1503 1504 1503 1503 1503 1504 1504 1504 1504 1504 1505 1504 1505 1505 1505 1505 1505 1503 1505 1505 1506 1507 1508
1534 1532 1530 1527 1524 1521 1517 1514 1510 1506 1503 1501 1500 1499 1498 1496 1495 1494 1494 1495 1496 1497 1497 1498 1498 1497 1497 1497 1497 1497 1496 1496 1496 1496 1498 1498 1497 1496 1496 1498 1499 1500 1501
1531 1530 1527 1525 1522 1518 1514 1511 1507 1504 1501 1498 1496 1494 1492 1490 1490 1488 1487 1488 1489 1490 1490 1491 1492 1492 1491 1491 1490 1489 1489 1488 1488 1488 1488 1490 1490 1489 1489 1489 1490 1492 1493
1529 1528 1525 1522 1520 1516 1512 1509 1506 1503 1500 1497 1495 1493 1490 1488 1486 1484 1483 1483 1484 1484 1484 1485 1485 1486 1486 1486 1485 1483 1482 1481 1480 1480 1480 1480 1481 1482 1481 1481 1482 1481 1483
1526 1525 1522 1519 1516 1513 1509 1506 1504 1502 1500 1498 1495 1492 1490 1487 1485 1482 1481 1481 1481 1480 1480 1481 1481 1480 1480 1481 1479 1477 1474 1473 1472 1472 1472 1471 1470 1472 1472 1471 1472 1473 1473
1524 1522 1520 1517 1514 1511 1508 1505 1502 1500 1499 1496 1494 1491 1488 1486 1484 1482 1480 1479 1478 1477 1476 1476 1477 1476 1476 1476 1475 1473 1468 1466 1466 1464 1463 1462 1461 1462 1462 1463 1462 1463 1463
1522 1520 1518 1515 1512 1509 1507 1504 1502 1499 1497 1495 1492 1489 1487 1484 1482 1480 1478 1476 1476 1475 1474 1474 1473 1472 1471 1471 1471 1470 1465 1459 1460 1460 1457 1456 1456 1455 1455 1455 1455 1454 1455
1519 1518 1515 1513 1510 1508 1505 1503 1500 1497 1495 1493 1490 1487 1485 1483 1480 1478 1476 1474 1472 1471 1471 1470 1469 1467 1466 1465 1465 1464 1462 1461 1458 1452 1453 1450 1449 1449 1449 1449 1448 1447 1446
1517 1515 1514 1511 1509 1507 1504 1501 1499 1496 1494 1491 1489 1486 1484 1481 1478 1476 1474 1472 1470 1469 1468 1466 1465 1464 1463 1462 1461 1460 1458 1456 1455 1451 1443 1444 1444 1443 1442 1441 1439 1440 1438
1515 1513 1512 1510 1508 1505 1503 1501 1498 1496 1494 1491 1488 1485 1482 1479 1476 1474 1472 1469 1467 1465 1464 1463 1462 1460 1460 1458 1457 1455 1454 1452 1450 1447 1440 1438 1438 1435 1437 1435 1433 1430 1428
Wind_Speed
2 2 3 2 2 2 3 4 4 4 3 3 3 2 2 3 3 4 4 3 2 2 3 6 6 3 4 3 3 2 3 6 6 6 4 3 2 2 3 4 4 3 4
4 2 3 3 3 2 3 3 4 4 3 3 3 2 2 2 3 4 3 1 2 4 6 5 5 3 3 2 2 1 2 5 7 6 3 2 2 2 3 3 3 2 2
3 2 4 4 3 2 3 3 4 4 3 3 3 3 2 3 3 3 1 3 4 6 5 3 2 2 2 4 2 1 2 5 6 7 5 3 2 3 1 3 2 1 1
4 3 3 4 3 2 3 4 4 5 5 4 4 4 4 3 3 3 1 3 4 2 3 2 2 4 5 5 4 3 3 5 6 7 4 3 5 4 2 3 2 1 1
4 3 2 2 3 3 4 5 6 7 6 6 6 5 5 4 5 4 2 4 4 5 5 5 5 6 7 7 6 5 5 5 7 7 5 5 8 5 5 3 2 2 1
3 4 4 2 2 4 5 5 7 7 8 8 8 7 7 6 6 5 4 5 6 7 7 9 8 8 7 8 8 7 7 7 7 6 6 8 6 9 6 4 4 4 3
3 0 0 1 3 4 5 6 7 8 9 9 10 10 10 9 8 7 6 7 8 9 9 10 10 9 8 8 9 8 9 9 7 7 7 8 8 9 8 7 5 5 5
2 3 3 3 3 6 8 9 9 9 10 11 11 12 12 12 12 10 9 10 11 12 12 12 12 11 9 10 10 10 11 12 12 10 11 11 13 10 10 9 8 7 7
1 2 3 5 6 7 8 10 11 11 12 12 13 14 14 14 14 15 14 13 13 13 14 15 15 13 12 11 12 12 13 13 13 12 13 12 14 13 12 12 10 9 9
3 5 6 7 8 9 11 12 12 13 15 15 15 16 16 17 17 18 17 17 16 15 15 16 17 17 14 13 14 15 15 16 16 15 16 15 15 15 14 14 13 12 11
7 8 9 10 11 12 13 15 15 16 17 18 18 18 18 19 15 18 19 20 19 18 18 18 18 18 19 17 17 17 18 20 17 17 16 18 16 17 16 16 16 15 14
7 9 10 11 12 13 15 16 17 19 20 20 21 21 21 22 23 23 22 22 22 21 22 21 20 20 21 21 19 20 22 21 19 19 20 22 20 19 19 18 18 17 17
9 11 12 13 14 16 17 18 18 19 21 23 24 24 25 25 25 27 27 25 25 25 25 22 22 21 21 23 21 19 18 19 20 20 23 25 22 23 22 21 21 21 20
9 12 14 15 17 18 20 21 23 23 24 24 26 27 28 29 29 29 29 30 30 27 25 23 22 19 20 20 22 23 21 21 21 21 22 27 25 26 26 24 24 24 23
11 13 16 17 18 19 20 21 23 25 27 28 28 28 29 31 32 30 30 31 31 31 31 29 26 28 26 25 24 23 25 24 24 24 23 29 27 28 28 28 27 26 26
12 14 16 17 19 21 22 22 23 24 26 28 29 30 31 32 33 33 32 29 27 29 33 33 32 32 33 32 32 32 30 27 26 26 26 26 31 30 31 31 31 30 29
12 15 17 19 20 22 23 24 24 24 25 25 26 28 30 31 34 34 33 30 26 24 26 30 35 34 34 32 33 35 33 35 31 29 29 28 28 33 34 34 34 34 34
12 14 17 19 19 20 22 24 24 25 26 25 24 24 25 26 29 32 33 33 30 25 24 23 23 29 32 33 30 36 36 36 39 39 33 30 31 30 34 37 37 37 37
12 15 17 17 18 20 21 19 18 18 18 19 20 20 20 21 23 26 28 29 28 24 23 22 23 23 25 30 31 33 31 36 37 38 40 38 33 33 32 35 40 40 41
12 14 15 16 17 19 19 16 14 14 14 15 15 15 16 17 15 18 21 22 24 24 22 21 21 22 23 24 26 28 32 38 36 40 37 38 38 35 34 39 41 44 44
11 13 14 17 18 19 19 18 16 15 13 11 12 14 15 15 14 13 14 15 17 20 19 18 18 20 21 21 24 27 29 30 34 41 42 38 42 40 40 44 44 46 47
10 12 13 15 16 16 18 17 15 16 14 11 11 11 12 12 12 12 12 12 13 14 13 14 15 18 19 17 22 23 28 28 27 28 30 34 37 39 39 41 39 41 44
9 10 12 14 15 15 16 17 16 15 13 13 12 13 11 11 11 10 11 10 11 11 12 13 15 17 19 17 17 18 15 20 19 18 20 22 25 26 28 31 32 31 30
7 9 11 12 13 14 15 16 17 16 15 15 16 15 13 11 11 12 12 12 12 12 13 15 16 18 17 18 17 18 22 24 25 26 25 22 24 24 29 30 28 27 30
7 8 9 11 12 13 13 15 16 15 14 14 15 15 15 13 13 13 13 14 15 15 16 16 17 18 20 20 18 19 21 23 24 28 29 28 26 30 33 37 39 44 42
8 7 8 9 10 11 11 12 13 13 13 14 14 14 14 14 14 13 13 13 14 15 16 17 17 17 19 21 24 25 23 25 26 28 31 30 29 32 29 31 31 35 36
Wind_Direction
185 297 310 276 211 190 195 216 208 205 225 254 280 288 295 313 325 330 336 351 26 73 130 146 158 133 128 132 122 117 147 169 167 162 150 127 101 95 91 76 73 91 102
157 193 262 301 225 247 219 225 226 223 234 260 279 281 303 316 325 329 337 68 94 95 116 127 166 197 179 163 120 119 150 173 198 193 167 148 125 138 106 55 41 80 134
120 203 257 285 259 271 257 236 233 251 254 268 271 274 290 311 323 328 337 141 123 117 115 135 168 232 221 188 249 273 207 185 197 203 193 155 270 184 129 8 21 39 142
110 108 196 254 274 257 267 258 244 243 254 268 274 278 288 300 315 322 296 180 173 151 161 177 251 264 261 254 254 259 222 196 189 188 192 193 232 235 303 325 338 357 154
106 166 212 233 215 258 261 250 250 255 254 259 269 281 276 287 300 300 274 220 214 212 236 257 279 285 259 254 254 247 227 211 205 206 214 205 213 230 292 292 294 296 233
167 122 187 246 263 249 238 241 255 257 253 254 260 265 269 280 282 275 264 249 236 236 248 255 275 287 268 252 256 240 230 222 213 211 208 222 199 243 262 256 264 276 258
205 116 297 273 276 269 269 264 253 249 260 262 260 258 260 262 271 271 260 253 252 249 252 249 267 279 273 255 253 240 229 220 211 225 225 230 241 258 260 254 255 262 258
203 254 265 274 260 270 272 272 264 258 258 257 260 264 262 259 258 262 262 259 257 257 256 254 265 270 269 260 254 245 232 228 236 237 241 247 248 260 261 253 251 254 255
298 312 301 283 279 271 271 274 273 273 267 262 262 260 261 260 258 261 263 262 263 263 260 260 264 268 266 261 256 249 239 237 237 238 241 250 253 258 258 254 251 253 257
297 308 307 299 289 279 273 273 271 270 270 273 264 258 258 260 259 260 261 262 264 266 265 262 260 262 266 263 257 253 247 244 243 243 247 247 254 254 253 253 252 254 256
300 305 308 304 300 294 285 278 274 270 267 268 271 266 261 257 261 267 265 263 265 265 266 265 261 257 261 263 257 253 250 248 247 245 246 252 254 255 254 255 252 250 251
300 303 302 301 300 296 292 287 282 276 272 269 268 269 267 264 263 259 257 263 262 261 263 263 261 256 253 256 265 255 249 249 245 248 250 256 253 254 255 256 256 252 252
309 313 312 310 308 303 299 296 291 286 280 274 270 268 268 269 267 265 264 266 265 264 262 263 261 257 249 252 251 248 250 247 247 251 255 258 254 257 255 253 254 255 255
311 314 317 316 311 307 303 299 296 292 287 281 275 271 268 267 267 266 266 264 264 264 260 260 253 252 249 249 252 253 249 251 250 252 256 263 259 256 255 255 254 255 255
318 318 318 317 315 310 305 298 293 289 285 280 277 273 270 268 266 265 264 264 261 260 264 259 258 262 255 254 251 254 255 253 253 255 258 263 260 258 257 254 254 254 253
316 320 321 323 321 318 314 309 302 294 287 283 278 273 267 266 265 265 264 263 260 262 259 262 264 261 265 266 267 263 258 256 257 256 258 261 266 258 257 257 255 253 252
319 325 327 326 324 322 320 317 312 306 298 291 286 280 274 269 266 265 264 261 261 263 265 262 261 265 265 265 267 267 269 266 257 256 258 258 261 265 258 256 255 254 253
316 321 324 325 325 326 323 318 315 313 310 306 300 293 287 278 270 265 263 263 265 263 262 261 261 261 262 266 272 270 269 269 272 268 257 256 257 258 262 260 259 257 255
316 325 328 330 332 333 333 327 326 326 322 317 313 310 305 294 281 271 267 263 262 264 262 262 262 265 268 263 269 268 274 271 271 277 273 263 258 258 259 263 263 260 259
316 327 329 334 339 340 342 346 358 357 351 344 339 333 326 322 312 290 278 272 268 267 266 265 265 264 264 266 268 270 269 267 275 269 274 274 266 260 261 266 266 267 260
317 327 330 335 342 343 347 352 358 1 356 349 346 340 338 335 328 321 304 290 281 275 272 269 269 268 268 267 270 273 274 275 271 266 270 269 277 268 267 269 269 269 270
311 329 334 336 342 343 347 351 350 348 352 351 343 346 337 333 331 325 318 307 295 284 278 273 272 274 272 267 266 274 278 276 271 269 268 272 271 269 270 272 269 267 267
306 325 336 340 343 343 339 340 340 337 337 332 342 342 343 329 322 318 312 305 295 292 286 280 277 275 275 272 264 261 279 271 285 272 270 271 265 268 273 273 274 278 277
298 327 338 341 341 339 339 341 340 339 340 336 337 338 337 324 311 309 305 299 292 286 285 288 286 280 276 273 265 260 264 272 278 283 272 277 277 267 273 277 279 272 283
289 320 335 342 344 343 343 344 343 345 339 342 338 336 335 334 328 322 318 317 310 303 297 290 286 283 280 282 281 278 276 276 276 274 280 281 278 275 277 275 272 274 280
276 306 327 336 341 343 345 347 351 351 350 348 344 344 346 341 337 328 323 318 312 306 300 295 290 289 291 288 287 280 276 277 277 279 281 280 279 279 277 274 277 274 276